WD4DXQ Weather Reports


Display with metric or nautical units.
time (UTC)temp
F
wind
direction
speed
MPH
gust
MPH
rain 1hr
in
rain 24hr
in
rain mn
in
humidity
%
barometer
mb
20210928022542 63 147 0.0 0.0 0.00 0.00 0.00 95 1018.5
20210928022051 63 147 0.0 0.0 0.00 0.00 0.00 94 1018.5
20210928021551 63 147 0.0 0.0 0.00 0.00 0.00 94 1018.5
20210928021042 64 147 0.0 0.0 0.00 0.00 0.00 93 1018.4
20210928020526 64 147 0.0 0.0 0.00 0.00 0.00 94 1018.4
20210928020012 64 147 0.0 0.0 0.00 0.00 0.00 94 1018.4
20210928015512 64 147 0.0 0.0 0.00 0.00 0.00 93 1018.4
20210928015009 65 147 0.0 0.0 0.00 0.00 0.00 94 1018.4
20210928014503 65 147 0.0 0.0 0.00 0.00 0.00 93 1018.4
20210928014010 65 147 0.0 0.0 0.00 0.00 0.00 93 1018.4
20210928013456 65 147 0.0 0.0 0.00 0.00 0.00 93 1018.4
20210928012958 65 147 0.0 0.0 0.00 0.00 0.00 93 1018.4
20210928012505 65 147 0.0 0.0 0.00 0.00 0.00 93 1018.4
20210928012005 66 147 0.0 0.0 0.00 0.00 0.00 93 1018.3
20210928011454 66 147 0.0 0.0 0.00 0.00 0.00 93 1018.3
20210928010942 66 147 0.0 0.0 0.00 0.00 0.00 93 1018.2
20210928010435 66 147 0.0 0.0 0.00 0.00 0.00 93 1018.2
20210928005934 66 147 0.0 0.0 0.00 0.00 0.00 93 1018.2
20210928005424 67 147 0.0 0.0 0.00 0.00 0.00 93 1018.2
20210928004928 67 147 0.0 0.0 0.00 0.00 0.00 92 1018.1
20210928004421 67 147 0.0 0.0 0.00 0.00 0.00 92 1018.1
20210928003929 67 147 0.0 0.0 0.00 0.00 0.00 92 1018.1
20210928003418 68 147 0.0 0.0 0.00 0.00 0.00 91 1018.1
20210928002913 68 147 0.0 0.0 0.00 0.00 0.00 91 1018.0
20210928002419 68 147 0.0 0.0 0.00 0.00 0.00 91 1018.0
20210928001927 69 147 0.0 0.0 0.00 0.00 0.00 91 1018.0
20210928001418 69 147 0.0 0.0 0.00 0.00 0.00 91 1018.1
20210928000904 69 147 0.0 0.0 0.00 0.00 0.00 90 1018.0
20210928000412 69 147 0.0 0.0 0.00 0.00 0.00 90 1017.9
20210927235900 70 147 0.0 0.0 0.00 0.00 0.00 90 1017.9
20210927235359 70 147 0.0 0.0 0.00 0.00 0.00 90 1017.9
20210927234900 70 147 0.0 0.0 0.00 0.00 0.00 89 1017.8
20210927234404 71 147 0.0 0.0 0.00 0.00 0.00 89 1017.8
20210927233905 71 147 0.0 0.0 0.00 0.00 0.00 89 1017.9
20210927233352 71 147 0.0 0.0 0.00 0.00 0.00 88 1017.9
20210927232854 72 147 0.0 0.0 0.00 0.00 0.00 87 1017.8
20210927232342 72 147 0.0 0.0 0.00 0.00 0.00 86 1017.8
20210927231841 72 147 0.0 0.0 0.00 0.00 0.00 86 1017.8
20210927231342 72 147 0.0 0.0 0.00 0.00 0.00 86 1017.9
20210927230825 72 147 0.0 0.0 0.00 0.00 0.00 85 1017.9
20210927230316 72 147 0.0 0.0 0.00 0.00 0.00 82 1017.8
20210927225825 73 147 0.0 0.0 0.00 0.00 0.00 85 1017.8
20210927225328 73 147 0.0 0.0 0.00 0.00 0.00 84 1017.9
20210927224814 73 147 0.0 0.0 0.00 0.00 0.00 83 1017.9
20210927224319 73 147 0.0 0.0 0.00 0.00 0.00 82 1017.9
20210927223801 73 147 0.0 0.0 0.00 0.00 0.00 81 1018.0
20210927223241 74 147 0.0 0.0 0.00 0.00 0.00 80 1018.0
20210927222728 74 147 0.0 0.0 0.00 0.00 0.00 80 1018.0
20210927222236 74 147 0.0 0.0 0.00 0.00 0.00 79 1018.0
20210927221744 74 147 0.0 0.0 0.00 0.00 0.00 78 1018.0
20210927221236 75 147 0.0 0.0 0.00 0.00 0.00 78 1018.0
20210927220720 75 147 0.0 0.0 0.00 0.00 0.00 77 1018.0
20210927220201 76 147 0.0 0.0 0.00 0.00 0.00 77 1018.0
20210927215657 76 147 0.0 0.0 0.00 0.00 0.00 77 1018.0
20210927215148 77 147 0.0 0.0 0.00 0.00 0.00 76 1018.0
20210927214655 77 147 0.0 0.0 0.00 0.00 0.00 75 1018.0
20210927214202 78 147 0.0 0.0 0.00 0.00 0.00 73 1018.0
20210927213710 78 147 0.0 0.0 0.00 0.00 0.00 72 1018.0
20210927213159 79 185 0.0 0.0 0.00 0.00 0.00 70 1018.0
20210927212645 80 185 0.0 4.0 0.00 0.00 0.00 70 1018.0
20210927212136 80 185 0.0 3.0 0.00 0.00 0.00 68 1018.0
20210927211631 81 185 0.0 3.0 0.00 0.00 0.00 62 1018.1
20210927211119 81 202 1.0 4.0 0.00 0.00 0.00 58 1018.2
20210927210605 81 288 0.0 4.0 0.00 0.00 0.00 59 1018.2
20210927210110 81 289 0.0 2.0 0.00 0.00 0.00 67 1018.2
20210927205610 81 299 0.0 0.0 0.00 0.00 0.00 63 1018.2
20210927205109 81 299 0.0 2.0 0.00 0.00 0.00 64 1018.2
20210927204551 82 299 0.0 2.0 0.00 0.00 0.00 61 1018.2
20210927204039 82 291 0.0 2.0 0.00 0.00 0.00 62 1018.3
20210927203535 81 291 0.0 2.0 0.00 0.00 0.00 60 1018.3
20210927203022 81 294 0.0 2.0 0.00 0.00 0.00 61 1018.2
20210927202518 81 294 0.0 2.0 0.00 0.00 0.00 62 1018.3
20210927202023 81 270 0.0 2.0 0.00 0.00 0.00 61 1018.4
20210927201506 81 206 0.0 1.0 0.00 0.00 0.00 66 1018.4
20210927200951 81 206 0.0 0.0 0.00 0.00 0.00 63 1018.4
20210927200447 82 206 1.0 5.0 0.00 0.00 0.00 59 1018.5
20210927195928 82 193 1.0 5.0 0.00 0.00 0.00 57 1018.5
20210927195432 82 212 0.0 1.0 0.00 0.00 0.00 56 1018.6
20210927194917 82 212 0.0 3.0 0.00 0.00 0.00 56 1018.6
20210927194411 81 185 0.0 2.0 0.00 0.00 0.00 59 1018.6
20210927193908 81 185 0.0 2.0 0.00 0.00 0.00 62 1018.7
20210927193418 81 253 0.0 2.0 0.00 0.00 0.00 61 1018.7
20210927192859 80 253 0.0 2.0 0.00 0.00 0.00 65 1018.8
20210927192405 80 280 0.0 2.0 0.00 0.00 0.00 60 1018.8
20210927191852 80 302 0.0 2.0 0.00 0.00 0.00 60 1018.9
20210927191400 80 292 0.0 1.0 0.00 0.00 0.00 69 1019.0
20210927190900 80 292 0.0 2.0 0.00 0.00 0.00 59 1019.1
20210927190400 80 262 0.0 0.0 0.00 0.00 0.00 59 1019.2
20210927185907 80 262 0.0 2.0 0.00 0.00 0.00 61 1019.3
20210927185414 80 283 0.0 1.0 0.00 0.00 0.00 62 1019.4
20210927184904 80 283 0.0 0.0 0.00 0.00 0.00 68 1019.4
20210927184348 80 283 0.0 6.0 0.00 0.00 0.00 59 1019.6
20210927183841 80 190 0.0 6.0 0.00 0.00 0.00 62 1019.5
20210927183339 80 127 0.0 6.0 0.00 0.00 0.00 62 1019.6
20210927182829 80 306 0.0 2.0 0.00 0.00 0.00 62 1019.7
20210927182321 79 233 0.0 2.0 0.00 0.00 0.00 62 1019.7
20210927181807 79 12 0.0 2.0 0.00 0.00 0.00 69 1019.9
20210927181317 79 12 0.0 2.0 0.00 0.00 0.00 67 1019.9
20210927180807 79 325 0.0 4.0 0.00 0.00 0.00 66 1020.0
20210927180312 80 325 0.0 4.0 0.00 0.00 0.00 63 1020.0
20210927175805 80 325 0.0 4.0 0.00 0.00 0.00 65 1020.2
20210927175258 80 325 0.0 4.0 0.00 0.00 0.00 67 1020.3
20210927174805 79 339 0.0 2.0 0.00 0.00 0.00 66 1020.3
20210927174257 79 339 0.0 2.0 0.00 0.00 0.00 66 1020.3
20210927173806 79 10 0.0 2.0 0.00 0.00 0.00 68 1020.4
20210927173248 79 328 0.0 2.0 0.00 0.00 0.00 64 1020.5
20210927172738 79 325 0.0 2.0 0.00 0.00 0.00 66 1020.5
20210927172245 79 325 0.0 2.0 0.00 0.00 0.00 69 1020.6
20210927171727 79 323 0.0 3.0 0.00 0.00 0.00 65 1020.7
20210927171231 78 256 0.0 3.0 0.00 0.00 0.00 66 1020.7
20210927170725 78 298 0.0 3.0 0.00 0.00 0.00 67 1020.8
20210927170222 78 252 0.0 3.0 0.00 0.00 0.00 69 1020.8
20210927165727 77 204 0.0 3.0 0.00 0.00 0.00 69 1020.8
20210927165221 77 339 0.0 3.0 0.00 0.00 0.00 71 1020.8
20210927164707 76 314 0.0 2.0 0.00 0.00 0.00 75 1020.9
20210927164213 76 272 0.0 2.0 0.00 0.00 0.00 75 1020.9
20210927163723 76 193 0.0 2.0 0.00 0.00 0.00 77 1021.0
20210927163212 75 187 0.0 2.0 0.00 0.00 0.00 73 1021.1
20210927162721 74 208 0.0 1.0 0.00 0.00 0.00 76 1021.1
20210927162222 74 208 0.0 1.0 0.00 0.00 0.00 75 1021.2
20210927161720 73 208 0.0 1.0 0.00 0.00 0.00 80 1021.3
20210927161215 73 208 0.0 1.0 0.00 0.00 0.00 80 1021.3
20210927160719 72 206 0.0 1.0 0.00 0.00 0.00 83 1021.4
20210927160229 71 205 0.0 0.0 0.00 0.00 0.00 87 1021.4
20210927155711 71 205 0.0 0.0 0.00 0.00 0.00 90 1021.4
20210927155219 70 205 0.0 0.0 0.00 0.00 0.00 91 1021.4
20210927154723 69 205 0.0 1.0 0.00 0.00 0.00 91 1021.3
20210927154205 69 354 0.0 1.0 0.00 0.00 0.00 92 1021.4
20210927153654 68 354 0.0 1.0 0.00 0.00 0.00 92 1021.5
20210927153202 68 263 0.0 1.0 0.00 0.00 0.00 95 1021.5
20210927152646 67 262 0.0 0.0 0.00 0.00 0.00 97 1021.5
20210927152148 67 262 0.0 0.0 0.00 0.00 0.00 98 1021.5
20210927151647 66 262 0.0 0.0 0.00 0.00 0.00 98 1021.6
20210927151153 66 262 0.0 0.0 0.00 0.00 0.00 98 1021.7
20210927150658 65 262 0.0 0.0 0.00 0.00 0.00 98 1021.6
20210927150141 65 262 0.0 0.0 0.00 0.00 0.00 98 1021.7
20210927145624 64 262 0.0 0.0 0.00 0.00 0.00 99 1021.7
20210927145131 64 262 0.0 0.0 0.00 0.00 0.00 98 1021.7
20210927144617 63 262 0.0 0.0 0.00 0.00 0.00 98 1021.8
20210927144123 63 262 0.0 0.0 0.00 0.00 0.00 98 1021.7
20210927143621 63 262 0.0 0.0 0.00 0.00 0.00 98 1021.7
20210927143126 62 262 0.0 0.0 0.00 0.00 0.00 98 1021.7
20210927142611 62 262 0.0 0.0 0.00 0.00 0.00 98 1021.8
20210927142059 61 262 0.0 0.0 0.00 0.00 0.00 98 1021.7
20210927141607 61 262 0.0 0.0 0.00 0.00 0.00 98 1021.7
20210927141111 60 262 0.0 0.0 0.00 0.00 0.00 98 1021.7
20210927140620 60 262 0.0 0.0 0.00 0.00 0.00 98 1021.7
20210927140115 60 262 0.0 0.0 0.00 0.00 0.00 98 1021.7
20210927135606 59 262 0.0 0.0 0.00 0.00 0.00 98 1021.8
20210927135054 59 262 0.0 0.0 0.00 0.00 0.00 98 1021.8
20210927134535 58 262 0.0 0.0 0.00 0.00 0.00 98 1021.8
20210927134043 58 262 0.0 0.0 0.00 0.00 0.00 98 1021.8
20210927133545 57 262 0.0 0.0 0.00 0.00 0.00 98 1021.9
20210927133042 57 262 0.0 0.0 0.00 0.00 0.00 98 1021.8
20210927132548 56 262 0.0 0.0 0.00 0.00 0.00 98 1021.9
20210927132044 56 262 0.0 0.0 0.00 0.00 0.00 98 1021.9
20210927131542 56 262 0.0 0.0 0.00 0.00 0.00 98 1021.9
20210927131033 55 262 0.0 0.0 0.00 0.00 0.00 98 1021.9
20210927130539 55 262 0.0 0.0 0.00 0.00 0.00 98 1021.9
20210927130032 55 262 0.0 0.0 0.00 0.00 0.00 98 1021.8
20210927125531 55 262 0.0 0.0 0.00 0.00 0.00 97 1021.8
20210927125013 54 262 0.0 0.0 0.00 0.00 0.00 98 1021.9
20210927124511 54 262 0.0 0.0 0.00 0.00 0.00 97 1021.8
20210927124006 54 262 0.0 0.0 0.00 0.00 0.00 97 1021.8
20210927123507 54 262 0.0 0.0 0.00 0.00 0.00 97 1021.8
20210927123009 54 262 0.0 0.0 0.00 0.00 0.00 97 1021.8
20210927122459 54 262 0.0 0.0 0.00 0.00 0.00 97 1021.8
20210927121950 54 262 0.0 0.0 0.00 0.00 0.00 97 1021.8
20210927121456 54 262 0.0 0.0 0.00 0.00 0.00 97 1021.7
20210927121005 53 262 0.0 0.0 0.00 0.00 0.00 97 1021.6
20210927120508 53 262 0.0 0.0 0.00 0.00 0.00 97 1021.6
20210927120005 53 262 0.0 0.0 0.00 0.00 0.00 97 1021.5
20210927115451 53 262 0.0 0.0 0.00 0.00 0.00 97 1021.3
20210927114954 53 262 0.0 0.0 0.00 0.00 0.00 97 1021.4
20210927114453 53 262 0.0 0.0 0.00 0.00 0.00 97 1021.4
20210927113940 53 262 0.0 0.0 0.00 0.00 0.00 97 1021.5
20210927113444 53 262 0.0 0.0 0.00 0.00 0.00 97 1021.4
20210927112949 53 262 0.0 0.0 0.00 0.00 0.00 97 1021.4
20210927112436 54 262 0.0 0.0 0.00 0.00 0.00 97 1021.4
20210927111925 54 262 0.0 0.0 0.00 0.00 0.00 97 1021.3
20210927111431 54 262 0.0 0.0 0.00 0.00 0.00 97 1021.3
20210927110915 54 262 0.0 0.0 0.00 0.00 0.00 97 1021.2
20210927110400 54 262 0.0 0.0 0.00 0.00 0.00 97 1021.1
20210927105843 54 262 0.0 0.0 0.00 0.00 0.00 97 1021.1
20210927105349 54 262 0.0 0.0 0.00 0.00 0.00 97 1021.1
20210927104830 54 262 0.0 0.0 0.00 0.00 0.00 97 1021.1
20210927104315 54 262 0.0 0.0 0.00 0.00 0.00 97 1020.9
20210927103807 54 262 0.0 0.0 0.00 0.00 0.00 97 1020.9
20210927103300 54 262 0.0 0.0 0.00 0.00 0.00 97 1020.8
20210927102754 54 262 0.0 0.0 0.00 0.00 0.00 97 1020.7
20210927102237 54 262 0.0 0.0 0.00 0.00 0.00 97 1020.7
20210927101726 54 262 0.0 0.0 0.00 0.00 0.00 97 1020.7
20210927101231 54 262 0.0 0.0 0.00 0.00 0.00 97 1020.6
20210927100714 54 262 0.0 0.0 0.00 0.00 0.00 97 1020.6
20210927100158 54 262 0.0 0.0 0.00 0.00 0.00 97 1020.5
20210927095650 54 262 0.0 0.0 0.00 0.00 0.00 97 1020.5
20210927095153 54 262 0.0 0.0 0.00 0.00 0.00 97 1020.4
20210927094657 54 262 0.0 0.0 0.00 0.00 0.00 97 1020.4
20210927094157 54 262 0.0 0.0 0.00 0.00 0.00 97 1020.4
20210927093704 54 262 0.0 0.0 0.00 0.00 0.00 97 1020.4
20210927093202 54 262 0.0 0.0 0.00 0.00 0.00 97 1020.4
20210927092659 54 262 0.0 0.0 0.00 0.00 0.00 97 1020.4
20210927092203 54 262 0.0 0.0 0.00 0.00 0.00 97 1020.4
20210927091704 54 262 0.0 0.0 0.00 0.00 0.00 97 1020.4
20210927091200 55 262 0.0 0.0 0.00 0.00 0.00 97 1020.4
20210927090658 55 262 0.0 0.0 0.00 0.00 0.00 97 1020.5
20210927090204 55 262 0.0 0.0 0.00 0.00 0.00 96 1020.4
20210927085658 55 262 0.0 0.0 0.00 0.00 0.00 96 1020.4
20210927085201 55 262 0.0 0.0 0.00 0.00 0.00 96 1020.4
20210927084642 55 262 0.0 0.0 0.00 0.00 0.00 96 1020.4
20210927084141 55 262 0.0 0.0 0.00 0.00 0.00 97 1020.4
20210927083639 55 262 0.0 0.0 0.00 0.00 0.00 97 1020.3
20210927083124 55 262 0.0 0.0 0.00 0.00 0.00 97 1020.4
20210927082633 55 262 0.0 0.0 0.00 0.00 0.00 97 1020.4
20210927082115 55 262 0.0 0.0 0.00 0.00 0.00 97 1020.3
20210927081622 55 262 0.0 0.0 0.00 0.00 0.00 97 1020.3
20210927081119 55 262 0.0 0.0 0.00 0.00 0.00 97 1020.3
20210927080619 55 262 0.0 0.0 0.00 0.00 0.00 96 1020.3
20210927080123 55 262 0.0 0.0 0.00 0.00 0.00 96 1020.3
20210927075606 55 262 0.0 0.0 0.00 0.00 0.00 96 1020.3
20210927075056 55 262 0.0 0.0 0.00 0.00 0.00 96 1020.4
20210927074552 55 262 0.0 0.0 0.00 0.00 0.00 96 1020.4
20210927074042 55 262 0.0 0.0 0.00 0.00 0.00 96 1020.4
20210927073543 55 262 0.0 0.0 0.00 0.00 0.00 96 1020.4
20210927073040 56 262 0.0 0.0 0.00 0.00 0.00 96 1020.5
20210927072546 56 262 0.0 0.0 0.00 0.00 0.00 96 1020.5
20210927072047 56 262 0.0 0.0 0.00 0.00 0.00 96 1020.6
20210927071528 56 262 0.0 0.0 0.00 0.00 0.00 96 1020.6
20210927071031 56 262 0.0 0.0 0.00 0.00 0.00 96 1020.6
20210927070532 56 262 0.0 0.0 0.00 0.00 0.00 96 1020.6
20210927070031 56 262 0.0 0.0 0.00 0.00 0.00 96 1020.6
20210927065539 56 262 0.0 0.0 0.00 0.00 0.00 96 1020.6
20210927065020 56 262 0.0 0.0 0.00 0.00 0.00 96 1020.6
20210927064509 56 262 0.0 0.0 0.00 0.00 0.00 96 1020.6
20210927064006 56 262 0.0 0.0 0.00 0.00 0.00 96 1020.6
20210927063504 56 262 0.0 0.0 0.00 0.00 0.00 96 1020.6
20210927062954 56 262 0.0 0.0 0.00 0.00 0.00 96 1020.5
20210927062459 56 262 0.0 0.0 0.00 0.00 0.00 96 1020.5
20210927061943 57 262 0.0 0.0 0.00 0.00 0.00 96 1020.5
20210927061428 57 262 0.0 0.0 0.00 0.00 0.00 96 1020.5
20210927060926 56 262 0.0 0.0 0.00 0.00 0.00 96 1020.5
20210927060427 56 262 0.0 0.0 0.00 0.00 0.00 96 1020.5
20210927055938 57 262 0.0 0.0 0.00 0.00 0.00 96 1020.4
20210927055431 57 262 0.0 0.0 0.00 0.00 0.00 96 1020.5
20210927054925 57 262 0.0 0.0 0.00 0.00 0.00 96 1020.4
20210927054421 57 262 0.0 0.0 0.00 0.00 0.00 96 1020.4
20210927053913 57 262 0.0 0.0 0.00 0.00 0.00 96 1020.4
20210927053406 57 262 0.0 0.0 0.00 0.00 0.00 96 1020.4
20210927052849 57 262 0.0 0.0 0.00 0.00 0.00 96 1020.4
20210927052341 57 262 0.0 0.0 0.00 0.00 0.00 96 1020.5
20210927051833 57 262 0.0 0.0 0.00 0.00 0.00 95 1020.4
20210927051333 57 262 0.0 0.0 0.00 0.00 0.00 96 1020.4
20210927050813 57 262 0.0 0.0 0.00 0.00 0.00 96 1020.4
20210927050310 57 262 0.0 0.0 0.00 0.00 0.00 96 1020.5
20210927045814 58 262 0.0 0.0 0.00 0.00 0.00 95 1020.5
20210927045321 58 262 0.0 0.0 0.00 0.00 0.00 95 1020.6
20210927044831 58 262 0.0 0.0 0.00 0.00 0.00 95 1020.6
20210927044340 58 262 0.0 0.0 0.00 0.00 0.00 95 1020.6
20210927043838 58 262 0.0 0.0 0.00 0.00 0.00 95 1020.6
20210927043332 58 262 0.0 0.0 0.00 0.00 0.00 95 1020.6
20210927042820 58 262 0.0 0.0 0.00 0.00 0.00 95 1020.6
20210927042315 58 262 0.0 0.0 0.00 0.00 0.00 95 1020.6
20210927041815 58 262 0.0 0.0 0.00 0.00 0.00 95 1020.5
20210927041257 58 262 0.0 0.0 0.00 0.00 0.00 95 1020.5
20210927040757 59 262 0.0 0.0 0.00 0.00 0.00 95 1020.6
20210927040303 59 262 0.0 0.0 0.00 0.00 0.00 95 1020.5
20210927035802 59 262 0.0 0.0 0.00 0.00 0.00 95 1020.5
20210927035247 59 262 0.0 0.0 0.00 0.00 0.00 95 1020.5
20210927034737 59 262 0.0 0.0 0.00 0.00 0.00 95 1020.4
20210927034224 59 262 0.0 0.0 0.00 0.00 0.00 95 1020.4
20210927033718 59 262 0.0 0.0 0.00 0.00 0.00 95 1020.4
20210927033204 60 262 0.0 0.0 0.00 0.00 0.00 95 1020.4
20210927032714 60 262 0.0 0.0 0.00 0.00 0.00 95 1020.3
20210927032207 60 262 0.0 0.0 0.00 0.00 0.00 95 1020.3
20210927031704 60 262 0.0 0.0 0.00 0.00 0.00 95 1020.3
20210927031211 60 262 0.0 0.0 0.00 0.00 0.00 95 1020.3
20210927030701 60 262 0.0 0.0 0.00 0.00 0.00 95 1020.3
20210927030204 60 262 0.0 0.0 0.00 0.00 0.00 95 1020.2
20210927025652 60 262 0.0 0.0 0.00 0.00 0.00 94 1020.2
20210927025146 60 262 0.0 0.0 0.00 0.00 0.00 94 1020.1
20210927024633 61 262 0.0 0.0 0.00 0.00 0.00 94 1020.2
20210927024118 61 262 0.0 0.0 0.00 0.00 0.00 94 1020.1
20210927023605 61 262 0.0 0.0 0.00 0.00 0.00 94 1020.1
20210927023103 61 262 0.0 0.0 0.00 0.00 0.00 94 1020.1